Temperature
18 18 18 18 18 18 18 18 18 18 18 18 18 18 18 18 18 18 18 18 18 18 18 18 18 18 18 18 18 18 18 18 18 18 18 18 18 18 18 18 18 18 18
18 18 18 18 18 17 17 17 17 18 18 18 18 18 18 18 18 18 18 18 18 18 18 18 18 18 18 18 18 18 18 18 18 18 18 18 18 18 18 18 18 18 18
18 18 18 18 18 17 17 17 17 17 18 18 18 18 18 18 18 18 18 18 18 18 18 18 18 18 18 18 18 18 18 18 18 18 18 18 18 18 18 18 18 18 18
18 18 18 18 17 17 17 17 17 17 17 18 17 17 17 17 17 18 18 18 18 18 18 18 18 18 18 18 18 18 18 18 18 18 18 18 18 18 18 18 18 18 18
18 18 18 18 17 17 17 17 17 17 17 17 17 17 17 17 17 17 18 18 17 17 17 18 18 18 18 18 18 18 18 18 18 18 17 17 17 18 18 18 18 18 18
18 18 18 18 17 17 17 17 17 17 17 17 17 17 17 17 17 17 17 17 17 17 17 17 17 17 18 18 18 18 17 17 17 17 17 17 17 17 17 17 17 18 17
18 18 18 18 18 17 17 17 17 17 17 17 17 17 17 17 17 17 17 17 17 17 17 17 17 17 17 17 17 17 17 17 17 17 17 17 17 17 17 17 17 17 17
18 18 18 18 18 18 17 17 17 17 17 17 17 17 17 17 17 17 17 17 17 17 17 17 17 17 17 17 17 17 17 17 17 17 17 17 17 17 17 17 17 17 17
18 18 18 18 18 18 18 17 17 17 17 17 17 17 17 17 17 17 17 17 17 17 17 17 17 17 17 17 17 17 17 17 17 17 17 17 17 17 17 17 17 17 17
19 18 18 18 18 18 18 17 17 17 17 17 17 17 17 17 17 17 17 17 17 17 17 17 17 17 17 17 17 17 17 16 17 17 17 17 17 17 17 17 17 17 16
19 19 18 18 18 18 18 17 17 17 17 17 17 17 17 17 17 17 17 17 16 16 16 17 17 17 16 16 16 16 16 16 17 16 16 16 16 16 16 16 16 16 16
19 19 19 18 18 18 18 17 17 17 17 17 17 17 17 17 17 16 16 16 16 16 16 16 16 16 16 16 16 16 16 16 16 16 16 16 16 16 16 16 16 16 16
19 19 19 19 18 18 18 17 17 17 17 17 17 17 17 17 17 16 16 16 16 16 16 16 16 16 16 16 16 16 16 16 16 16 16 16 16 16 16 16 16 16 16
19 19 19 19 19 18 18 18 17 17 17 17 17 17 17 17 17 16 16 16 16 16 16 16 16 16 16 16 16 16 16 16 16 16 16 16 16 16 16 16 16 16 16
19 19 19 19 19 18 18 18 17 17 17 17 17 17 17 17 17 16 16 16 16 16 16 16 16 16 16 16 16 16 16 16 16 15 15 15 15 15 15 15 15 15 15
19 19 19 19 19 18 18 18 18 17 17 17 17 17 17 17 17 16 16 16 16 16 16 16 16 16 16 16 15 15 15 15 15 15 15 15 15 15 15 15 15 15 15
20 19 19 19 18 18 18 18 18 17 17 17 17 17 17 17 17 16 16 16 16 16 16 16 16 15 15 15 15 15 15 15 15 15 15 15 15 15 15 15 15 15 15
20 19 19 19 18 18 18 18 18 17 17 17 17 17 17 17 16 16 16 16 16 16 16 15 15 15 15 15 15 15 15 15 15 15 15 15 15 15 15 15 14 14 15
20 19 19 19 18 18 18 18 17 17 17 17 17 17 17 17 16 16 16 16 16 16 15 15 15 15 15 15 15 15 15 15 15 15 15 15 15 14 14 14 14 14 14
20 20 19 19 18 18 18 18 17 17 17 17 17 17 17 16 16 16 16 16 15 15 15 15 15 15 15 15 15 15 15 15 15 15 15 14 14 14 14 14 14 14 14
20 20 19 19 18 18 18 17 17 17 17 17 16 16 16 16 16 16 16 15 15 15 15 15 15 15 15 15 15 15 15 15 15 15 15 14 14 14 14 14 14 14 14
20 20 19 19 18 18 18 17 17 17 17 16 16 16 16 16 16 16 15 15 15 15 15 15 15 15 15 15 15 15 14 14 15 15 14 14 14 14 14 14 14 13 14
20 20 19 19 19 18 18 17 17 17 16 16 16 16 16 16 16 16 15 15 15 15 15 15 14 14 14 14 14 14 14 14 14 14 14 14 14 14 14 14 13 13 13
19 19 19 19 19 18 18 17 17 17 16 16 16 16 16 16 16 15 15 15 15 15 14 14 14 14 14 14 14 14 14 14 14 14 14 14 14 14 14 14 13 13 13
19 19 19 19 19 18 18 17 17 16 16 16 16 15 15 15 15 15 15 15 15 15 14 14 14 14 14 14 14 14 14 14 14 14 14 14 14 14 14 13 13 13 13
19 19 19 19 18 18 18 17 17 17 16 16 16 15 15 15 15 15 15 15 15 14 14 14 14 14 14 14 14 14 14 14 14 14 13 13 13 13 13 13 13 13 13
Wind_Speed
7 10 11 10 10 10 10 11 11 11 11 11 12 12 12 12 12 11 11 11 11 11 11 11 10 10 9 9 9 9 8 7 8 8 7 7 7 6 5 6 6 7 8
10 12 12 10 10 10 10 11 11 11 11 11 11 11 11 12 12 12 12 12 12 11 11 11 11 11 11 10 10 9 8 7 6 7 7 6 6 5 6 7 7 7 8
11 12 12 11 11 11 11 11 11 11 12 11 11 11 11 12 12 12 12 11 11 11 11 11 12 11 11 11 11 10 7 6 5 5 5 4 5 6 8 8 8 8 8
11 12 11 11 11 11 11 11 11 12 12 12 12 11 11 12 12 12 11 11 11 12 11 11 11 11 10 10 10 9 8 6 5 5 4 5 6 7 7 7 7 7 8
12 13 12 11 11 11 11 11 11 11 12 12 12 12 12 12 11 11 11 11 11 12 12 11 10 10 9 9 9 8 7 7 6 4 4 5 6 8 7 6 6 7 7
12 13 12 12 12 11 11 11 11 12 12 12 12 12 12 11 12 11 11 11 11 12 12 11 10 9 9 9 8 7 7 7 6 5 7 7 7 7 7 6 6 6 6
11 13 13 13 12 12 11 11 11 11 11 12 12 12 12 13 13 12 12 12 12 11 11 11 10 9 9 9 8 7 7 6 5 5 6 7 7 8 7 7 7 6 6
11 12 13 13 13 12 12 11 11 11 11 11 11 11 12 13 13 13 13 12 12 12 11 11 10 9 10 9 9 8 7 5 5 6 7 7 8 8 8 7 7 7 6
8 10 11 12 12 12 11 11 10 10 10 9 10 10 11 11 12 13 12 12 12 12 12 11 11 10 10 9 9 8 8 7 6 6 8 8 9 10 9 8 8 8 7
7 7 8 10 11 11 10 10 9 9 8 8 7 8 9 10 10 12 12 11 11 11 11 11 10 9 9 8 8 8 8 7 7 9 8 9 11 10 10 10 10 10 9
6 6 6 7 8 9 10 10 9 8 7 6 5 5 6 6 8 9 11 10 10 9 8 8 8 7 7 6 6 6 6 6 8 9 8 11 12 11 11 11 11 11 10
6 6 5 6 6 6 7 8 6 6 6 4 5 5 4 6 8 9 9 8 8 7 6 5 4 4 3 3 3 4 4 7 8 9 9 12 12 11 11 11 11 11 11
5 4 5 5 6 6 3 4 3 4 4 4 4 6 6 6 6 7 5 5 5 4 2 2 2 1 3 4 4 5 6 7 8 8 9 11 11 11 11 11 11 11 11
6 4 3 4 5 6 4 2 3 3 2 2 3 6 5 3 2 3 3 4 4 3 2 2 1 3 5 6 6 6 6 6 7 8 9 11 11 11 11 11 11 11 11
6 5 4 4 4 5 4 2 4 3 2 3 2 4 5 3 2 3 3 3 3 3 2 2 3 4 4 5 5 5 5 6 7 8 8 11 11 11 11 11 10 10 10
7 6 5 4 4 5 4 3 3 3 3 3 2 3 5 3 3 3 3 3 3 3 3 3 3 3 3 3 4 4 5 5 6 7 8 9 10 10 10 10 9 9 9
7 7 6 4 4 5 4 4 3 2 3 2 2 3 5 4 4 4 3 3 2 4 5 4 4 3 3 4 4 4 4 4 5 5 7 8 8 9 9 9 9 8 8
7 8 7 4 4 4 4 3 2 2 3 2 3 3 5 6 6 4 3 3 3 4 3 3 3 3 3 4 4 3 3 3 4 4 5 6 7 7 8 8 8 8 7
7 8 8 6 4 5 4 3 2 3 3 2 3 3 4 5 6 4 2 2 4 3 3 3 4 3 3 3 3 2 3 3 2 3 4 6 7 7 7 8 7 7 6
6 7 8 6 5 5 3 2 3 3 2 2 3 3 4 4 5 4 2 3 4 3 3 3 3 3 2 2 3 3 2 1 2 2 3 4 5 6 7 7 6 5 5
6 5 7 7 6 5 2 2 3 2 2 2 2 3 3 3 4 3 3 3 3 3 3 3 3 3 2 2 2 2 2 1 2 2 2 3 3 5 6 6 6 6 6
6 5 6 6 6 6 3 3 3 3 3 2 2 2 2 3 4 3 3 3 3 3 4 3 3 2 1 1 1 1 1 2 3 2 1 2 2 3 3 5 6 6 6
5 5 5 6 6 6 5 3 3 3 3 2 2 1 1 3 2 2 3 3 3 3 2 2 2 2 1 2 2 1 1 1 1 2 1 1 2 2 2 4 5 6 6
6 5 4 5 6 6 6 4 4 4 3 3 2 1 2 2 2 3 3 2 3 2 2 1 2 1 2 1 2 2 1 1 1 1 2 1 2 1 1 2 3 5 6
6 4 3 4 5 6 6 5 4 4 3 3 3 3 2 2 2 3 3 2 2 2 2 2 2 2 1 1 1 1 2 2 1 1 1 2 1 1 1 1 2 4 5
6 5 3 4 4 5 6 6 5 5 4 4 3 3 2 2 1 2 2 2 2 2 2 2 2 2 2 2 1 1 0 0 1 1 0 1 1 1 1 0 1 3 5
Wind_Direction
89 87 71 64 63 64 65 63 64 62 60 60 59 58 57 57 63 66 67 68 68 71 77 79 78 80 78 81 86 89 91 92 102 104 106 108 108 100 106 115 115 106 112
96 92 78 68 69 70 69 67 66 65 63 63 63 65 65 64 66 67 66 66 68 69 71 75 77 79 78 78 80 85 91 98 104 112 112 109 108 105 112 111 105 104 112
95 96 84 75 76 74 72 71 68 67 66 66 67 66 67 69 70 70 67 64 65 68 70 72 77 77 78 77 75 74 82 92 95 103 108 111 105 98 106 108 101 103 107
93 88 85 84 81 77 75 73 69 69 68 69 70 69 71 72 72 71 71 69 67 68 73 75 77 79 80 79 76 72 72 79 77 77 86 91 92 101 100 100 101 97 99
92 93 93 93 88 83 79 75 72 71 71 70 70 71 73 74 76 76 74 74 73 72 74 76 78 79 79 77 73 68 67 67 64 70 70 82 89 104 100 93 96 98 99
101 100 101 99 95 89 83 79 77 74 73 71 72 72 73 75 77 78 79 78 76 76 77 73 72 77 77 75 71 68 66 60 59 64 69 74 88 99 98 95 95 95 101
107 109 110 107 102 97 91 85 80 78 78 76 75 76 76 76 76 76 78 79 79 77 76 74 70 75 74 69 66 62 60 55 67 70 76 78 89 97 96 96 97 96 98
110 116 118 117 111 105 99 92 87 84 82 82 80 81 82 81 79 77 78 79 81 79 79 74 72 82 78 70 64 56 44 43 62 78 80 85 95 96 92 88 92 95 99
114 122 130 130 122 114 108 102 97 95 93 92 89 89 92 91 89 86 82 80 81 81 82 77 75 78 71 66 59 50 45 46 55 71 77 78 89 87 86 86 88 92 94
116 119 125 131 129 126 121 120 119 115 114 113 111 108 108 104 101 96 88 86 87 86 85 80 76 76 70 65 58 52 51 52 65 71 71 76 84 81 78 81 85 83 84
111 114 121 121 122 126 128 127 138 140 138 136 136 136 137 124 111 103 98 98 95 93 93 90 86 84 77 65 59 57 54 67 72 73 68 81 85 82 81 82 83 82 81
120 120 120 124 120 115 116 136 148 132 148 152 130 128 121 94 100 104 112 111 107 104 101 102 100 95 97 88 78 79 68 68 72 76 73 82 83 82 83 84 84 85 84
116 111 122 123 117 109 102 122 115 115 127 118 118 111 101 102 110 116 128 129 127 123 120 111 128 123 93 84 73 81 76 72 71 75 78 85 83 81 82 82 82 86 87
116 115 108 114 115 118 116 118 119 111 107 90 77 95 93 91 95 98 106 120 120 115 102 103 106 78 74 76 70 68 71 76 81 88 87 91 89 87 85 85 84 84 85
131 135 118 110 113 109 110 129 110 100 95 99 77 96 98 88 91 90 87 88 94 101 88 58 64 64 60 64 69 67 69 78 88 92 94 95 94 94 92 89 86 83 85
141 134 117 122 115 112 119 115 98 104 111 103 94 100 101 97 83 79 79 75 71 71 79 74 67 62 60 67 59 66 73 75 86 99 109 104 102 102 100 96 92 88 86
141 130 120 132 119 112 105 94 95 101 96 88 99 90 100 94 90 82 75 77 71 65 62 62 59 59 62 65 61 58 71 77 83 98 111 114 110 105 106 104 99 92 86
141 132 131 137 125 114 107 109 108 98 87 82 77 70 87 87 79 73 63 66 72 64 66 63 51 54 56 61 54 46 55 72 81 102 109 114 116 111 110 114 109 101 93
147 143 145 141 135 115 113 122 106 97 93 90 74 64 69 76 87 86 72 69 75 66 56 63 57 55 60 64 63 56 49 58 59 90 95 105 113 118 115 115 114 110 103
148 149 145 141 137 123 123 122 100 97 98 85 81 70 72 75 83 89 83 74 79 76 65 68 73 65 61 64 59 65 60 68 47 78 96 97 115 125 125 120 119 115 115
147 151 145 145 142 128 129 118 118 113 101 89 97 82 85 91 90 82 71 76 71 74 75 75 72 81 59 64 60 35 28 46 72 73 93 100 97 106 122 130 125 117 118
160 166 151 153 154 142 142 139 139 127 124 108 96 111 97 88 91 100 102 92 84 74 66 68 71 64 28 42 75 72 43 13 4 36 80 120 111 100 99 105 109 110 115
161 179 167 157 147 138 142 127 121 104 93 93 107 115 104 101 105 107 104 104 109 101 99 93 92 87 52 5 37 63 96 169 333 342 355 75 95 94 90 97 108 113 112
175 185 168 154 148 141 138 135 137 135 142 158 144 145 122 108 104 92 104 105 100 102 114 115 90 97 95 30 5 14 40 107 118 319 323 5 80 103 124 103 91 96 108
169 170 168 151 144 133 138 146 148 144 152 142 134 143 139 125 123 111 101 89 97 101 97 81 86 62 72 78 53 20 11 2 8 131 286 320 354 358 81 104 127 107 118
156 159 163 142 137 135 140 148 154 155 151 142 138 144 150 141 135 119 108 106 107 107 100 94 94 73 58 56 43 48 73 350 322 43 210 280 287 294 318 155 139 128 124
Height
1505 1503 1502 1502 1501 1501 1501 1501 1501 1501 1501 1501 1501 1501 1501 1500 1500 1502 1503 1504 1504 1505 1506 1507 1507 1508 1509 1510 1510 1511 1512 1513 1514 1516 1517 1518 1519 1520 1521 1523 1524 1525 1526
1505 1504 1503 1502 1502 1502 1502 1502 1502 1502 1502 1502 1502 1502 1502 1503 1503 1504 1505 1505 1506 1506 1507 1508 1508 1509 1510 1511 1511 1512 1513 1514 1515 1516 1518 1519 1520 1520 1520 1522 1524 1525 1526
1505 1504 1504 1503 1503 1503 1503 1503 1503 1503 1503 1504 1504 1504 1504 1504 1505 1505 1506 1506 1507 1507 1508 1508 1509 1510 1511 1512 1512 1513 1514 1515 1516 1517 1518 1519 1520 1520 1521 1523 1524 1525 1526
1506 1505 1505 1504 1505 1505 1505 1505 1505 1505 1505 1505 1505 1506 1506 1506 1507 1507 1507 1508 1508 1508 1509 1509 1510 1511 1512 1512 1513 1514 1515 1516 1517 1518 1519 1520 1520 1521 1522 1523 1524 1526 1526
1507 1506 1506 1506 1506 1506 1506 1507 1507 1507 1507 1507 1507 1507 1508 1508 1508 1508 1509 1509 1509 1510 1510 1511 1511 1512 1513 1513 1514 1515 1516 1516 1517 1518 1520 1521 1521 1522 1523 1524 1525 1526 1527
1508 1507 1507 1507 1507 1508 1508 1508 1508 1508 1509 1509 1509 1509 1509 1509 1510 1510 1510 1510 1511 1511 1511 1512 1513 1513 1514 1514 1515 1515 1516 1517 1518 1519 1520 1521 1522 1523 1523 1524 1525 1526 1527
1509 1509 1509 1509 1509 1509 1510 1510 1510 1510 1510 1510 1511 1511 1511 1511 1511 1511 1511 1512 1512 1512 1512 1513 1513 1514 1514 1515 1515 1516 1516 1517 1518 1519 1521 1521 1522 1523 1524 1525 1525 1526 1528
1511 1510 1510 1511 1511 1511 1511 1512 1512 1512 1512 1512 1512 1513 1513 1513 1513 1513 1513 1513 1513 1513 1514 1514 1513 1515 1515 1516 1516 1516 1516 1517 1518 1520 1521 1521 1522 1523 1524 1525 1526 1527 1528
1512 1512 1512 1512 1513 1513 1513 1514 1514 1514 1514 1514 1514 1514 1515 1515 1515 1515 1515 1515 1515 1515 1515 1515 1515 1516 1516 1517 1517 1517 1516 1516 1518 1520 1521 1522 1523 1524 1524 1525 1526 1527 1528
1514 1514 1514 1514 1514 1515 1515 1515 1516 1516 1516 1516 1517 1517 1517 1517 1517 1517 1517 1517 1517 1517 1517 1517 1517 1517 1518 1518 1518 1518 1517 1517 1519 1521 1522 1523 1524 1524 1525 1526 1526 1527 1528
1515 1515 1516 1516 1517 1517 1517 1517 1518 1518 1518 1518 1519 1519 1519 1519 1519 1519 1520 1519 1519 1519 1519 1519 1519 1520 1520 1520 1520 1520 1520 1520 1521 1522 1523 1524 1525 1525 1526 1526 1527 1527 1529
1515 1516 1517 1518 1518 1519 1519 1519 1519 1520 1520 1521 1521 1521 1521 1522 1522 1522 1522 1522 1521 1521 1521 1521 1521 1522 1522 1522 1522 1523 1523 1523 1523 1524 1525 1525 1525 1526 1526 1527 1528 1528 1529
1516 1517 1518 1519 1519 1520 1520 1521 1521 1522 1522 1522 1523 1523 1523 1523 1524 1524 1523 1523 1523 1523 1523 1523 1523 1523 1524 1524 1524 1525 1525 1525 1525 1525 1526 1526 1527 1527 1528 1528 1528 1529 1529
1516 1517 1518 1519 1520 1520 1521 1522 1522 1523 1523 1524 1524 1524 1524 1525 1525 1525 1525 1525 1525 1525 1525 1525 1525 1526 1526 1526 1526 1526 1526 1527 1527 1527 1528 1528 1528 1528 1529 1529 1529 1530 1530
1516 1517 1519 1519 1520 1521 1521 1522 1523 1524 1524 1524 1525 1525 1526 1526 1526 1526 1527 1527 1527 1527 1527 1527 1527 1527 1527 1527 1527 1527 1528 1528 1528 1528 1529 1529 1529 1529 1529 1530 1530 1531 1531
1516 1517 1518 1519 1520 1521 1522 1523 1524 1524 1525 1525 1526 1526 1526 1527 1527 1527 1528 1528 1528 1528 1528 1528 1528 1528 1528 1528 1528 1529 1529 1529 1529 1529 1530 1530 1530 1530 1530 1531 1531 1531 1531
1515 1517 1518 1520 1521 1522 1523 1523 1524 1525 1525 1526 1526 1527 1527 1527 1528 1528 1528 1528 1529 1529 1529 1529 1529 1529 1529 1529 1529 1530 1530 1530 1530 1530 1531 1531 1531 1531 1531 1531 1531 1532 1532
1515 1516 1518 1519 1521 1522 1523 1524 1525 1525 1526 1526 1527 1527 1528 1528 1528 1528 1528 1529 1529 1529 1529 1529 1530 1530 1530 1530 1530 1531 1531 1531 1531 1531 1531 1531 1532 1532 1532 1532 1532 1532 1532
1514 1515 1517 1519 1520 1521 1523 1524 1525 1525 1526 1527 1527 1527 1528 1528 1528 1529 1529 1529 1529 1529 1530 1530 1530 1530 1530 1531 1531 1531 1532 1532 1532 1532 1532 1532 1532 1532 1532 1532 1532 1532 1532
1513 1515 1516 1518 1519 1520 1522 1523 1524 1525 1526 1526 1527 1527 1528 1528 1529 1529 1529 1529 1530 1530 1530 1530 1530 1531 1531 1531 1531 1532 1532 1532 1532 1532 1533 1533 1533 1533 1533 1532 1532 1532 1532
1512 1514 1515 1517 1518 1519 1521 1522 1523 1524 1525 1526 1527 1527 1528 1528 1529 1529 1529 1529 1530 1530 1530 1530 1531 1531 1531 1532 1532 1532 1532 1532 1532 1532 1533 1533 1533 1533 1533 1533 1533 1532 1532
1510 1512 1514 1516 1517 1518 1520 1521 1522 1524 1525 1525 1526 1527 1527 1528 1528 1529 1529 1529 1530 1530 1530 1530 1531 1531 1531 1532 1532 1532 1532 1534 1533 1533 1533 1533 1533 1533 1533 1533 1533 1532 1532
1508 1510 1512 1514 1515 1517 1518 1520 1521 1522 1524 1524 1525 1526 1527 1527 1528 1528 1529 1529 1529 1530 1530 1530 1530 1531 1531 1532 1532 1533 1533 1532 1533 1533 1533 1533 1533 1533 1533 1533 1532 1532 1532
1506 1508 1510 1512 1513 1515 1516 1518 1519 1520 1522 1523 1524 1525 1526 1527 1528 1528 1528 1529 1529 1529 1530 1530 1530 1531 1531 1531 1532 1532 1532 1532 1533 1533 1533 1533 1533 1533 1533 1533 1532 1532 1531
1504 1506 1508 1510 1512 1513 1514 1516 1518 1519 1521 1522 1523 1524 1525 1526 1527 1527 1528 1528 1529 1529 1529 1530 1530 1530 1530 1530 1531 1531 1531 1531 1532 1532 1532 1532 1532 1532 1532 1532 1532 1531 1531
1502 1504 1506 1508 1509 1510 1512 1514 1516 1517 1519 1520 1521 1522 1524 1525 1526 1526 1527 1527 1528 1528 1528 1529 1529 1529 1529 1530 1530 1530 1530 1531 1531 1531 1530 1530 1531 1531 1531 1531 1531 1530 1530